Simultaneous Nadir Overpasses (SNOs) Predictions

Prediction of SNOs between METOP-A and NOAA-19 Satellite Orbit:

Table of predicted SNOs for the next 14.0 days since TLE Epoch: 11/20/2016
Index Date (METOP-A) Time (METOP-A) Lat,Lon (METOP-A) SZA (METOP-A ) Date (NOAA-19) Time (NOAA-19) Lat,Lon (NOAA-19) SZA (NOAA-19 ) Distance(km) Time Diff (sec)
1 11/27/2016 14:28:44 -76.71, 145.36 82.04 11/27/2016 14:27:30 -76.74, 144.74 82.03 16.24 74
2 11/27/2016 15:19:25 76.65, -47.55 97.90 11/27/2016 15:18:32 76.62, -47.51 97.87 3.41 53
3 11/27/2016 16:10:07 -76.65, 119.78 82.10 11/27/2016 16:09:29 -76.62, 119.74 82.13 2.95 38
4 11/27/2016 17:00:47 76.63, -72.96 97.89 11/27/2016 17:00:34 76.63, -73.04 97.89 2.20 13
5 11/27/2016 17:51:29 -76.63, 94.36 82.11 11/27/2016 17:51:31 -76.63, 94.20 82.11 4.12 2
6
